[[{"header":{"parameterUnit":"m.s-1","parameterCategory":1,"la1":30.2991,"la2":30.254,"lo1":-89.0895,"lo2":-89.0444,"dy":0.0017,"dx":0.0017,"nx":28,"ny":28,"refTime":"2025-05-16T03:00:00:Z","depth":0,"parameterNumber":2,"parameterNumberName":"U-component_of_WINDS"},"data":[0,0,0,0,0,0,0,0,0,0,0,0,0,0,0,0,0,0,0,0,0,0,0,0,0,0,0,0,0,0,0,0,0,0,0,0,0,0,0,0,0,0,0,0,0,0,0,0,0,0,0,0,0,0,0,0,0,0,2.8661,2.8662,0,2.8708,2.8708,2.8709,2.8651,2.8649,2.8647,2.8645,2.8692,2.8695,2.8698,0,0,0,0,0,0,0,0,0,0,0,0,0,2.852,2.8523,2.8661,2.8662,2.8662,2.8708,2.8708,2.8709,2.8652,2.8649,2.8647,2.8644,2.8691,2.8694,2.8698,0,0,0,0,0,0,0,0,0,0,0,0,0,2.8576,2.8524,2.8661,2.8639,2.8638,2.8707,2.8708,2.8709,2.8652,2.8649,2.8646,2.8643,2.8689,2.8694,2.8699,2.8792,0,0,2.8714,2.8716,0,0,0,0,0,0,0,0,2.8573,2.8581,2.8642,2.8641,2.8639,2.867,2.8675,2.8737,2.8653,2.8647,2.8645,2.8641,2.8687,2.8692,2.8708,2.8794,2.8796,2.8714,2.8717,2.8719,2.872,0,0,0,0,0,0,0,2.8569,2.8579,2.8679,2.8643,2.8641,2.8626,2.8631,2.8687,2.8684,2.8647,2.8643,2.8649,2.8686,2.8703,2.8708,2.8797,2.8714,2.8718,2.8721,2.8723,2.8957,2.8961,0,0,0,0,0,0,2.8568,2.8576,2.8678,2.8681,2.8598,2.8631,2.8636,2.8664,2.8683,2.8683,2.8652,2.8647,2.8696,2.8703,2.871,2.8817,2.8719,2.8723,2.8726,2.8954,2.8958,2.8962,0,0,0,0,0,0,2.8565,2.8578,2.8676,2.8627,2.8639,2.8637,2.8668,2.8666,2.8683,2.8687,2.8686,2.867,2.8694,2.8703,2.8771,2.8818,2.8726,2.873,2.895,2.8955,2.896,2.9034,0,0,0,0,0,0,2.8561,2.8577,2.8613,2.8629,2.8642,2.8738,2.8671,2.8669,2.8692,2.8685,2.8704,2.8704,2.8692,2.8764,2.8776,2.8823,2.8734,2.8946,2.8953,2.8958,2.9027,2.904,2.9052,0,0,0,0,0,2.8556,2.8632,2.8615,2.8628,2.8687,2.8741,2.8748,2.8733,2.8696,2.8731,2.8733,2.8703,2.8811,2.8772,2.8784,2.8833,2.8943,2.8951,2.8958,2.9021,2.9038,2.9052,0,0,0,0,0,0,2.8623,2.8634,2.8615,2.8698,2.8719,2.8731,2.8775,2.8752,2.8783,2.8775,2.8756,2.876,2.8832,2.884,2.8796,2.8922,2.8871,2.8881,2.8914,2.893,2.8943,2.8938,2.8738,0,0,0,0,0,2.8647,2.869,2.8698,2.8771,2.8782,2.8777,2.88,2.8787,2.8807,2.8815,2.8822,2.8843,2.8881,2.8906,2.8942,2.9028,2.903,2.9068,2.9081,2.9091,2.9099,2.9143,2.9159,2.8987,2.8987,2.8986,0,0,2.8697,2.8709,2.8738,2.8784,2.8798,2.8842,2.8785,2.8835,2.8866,2.8823,2.8886,2.8893,2.8914,2.8991,2.9025,2.8999,2.9148,2.9101,2.9109,2.9112,2.9152,2.9168,2.9183,2.8992,2.8991,2.899,0,0,2.8811,2.8826,2.8886,2.8902,2.8924,2.892,2.8934,2.8949,2.8951,2.9015,2.8983,2.902,2.9087,2.9103,2.9119,2.9237,2.9209,2.9249,2.9314,2.9357,2.937,2.9382,2.9421,2.9436,2.9258,2.9259,2.9259,0,2.8871,2.8937,2.892,2.8972,2.8992,2.8954,2.9014,2.903,2.9063,2.9077,2.9048,2.9129,2.9141,2.9219,2.9248,2.9264,2.9278,2.9246,2.937,2.9381,2.9392,2.9429,2.9444,2.9263,2.9262,2.9262,2.9262,0,2.9007,2.9053,2.91,2.9131,2.9157,2.9213,2.9203,2.9231,2.9215,2.9214,2.9278,2.9291,2.9327,2.9345,2.9331,2.9421,2.9404,2.9373,2.932,2.9413,2.9447,2.9462,2.9269,2.9268,2.9266,2.9265,0,0,2.9164,2.9185,2.9202,2.9214,2.9235,2.927,2.9323,2.9358,2.9381,2.9405,2.9447,2.9503,2.9474,2.9493,2.948,2.9518,2.9606,2.9481,2.9481,2.9502,2.9702,2.9724,2.974,2.9589,2.9592,2.9594,2.97,0,2.9275,2.9367,2.9353,2.9441,2.9481,2.9446,2.9491,2.9509,2.9509,2.9542,2.9542,2.9581,2.9541,2.9551,2.9587,2.9588,2.9646,2.958,2.9626,2.9628,2.9619,2.9759,2.9782,2.9881,2.9713,2.9716,2.9717,0,2.9418,2.9445,2.9537,2.9549,2.9566,2.9607,2.9636,2.967,2.9688,2.9685,2.9705,2.9685,2.9736,2.9684,2.9753,2.9709,2.9727,2.973,2.9733,2.9735,2.9676,2.9762,2.9913,2.9927,2.9739,2.9737,2.9735,0,2.9518,2.9579,2.9641,2.9653,2.967,2.9699,2.9708,2.9722,2.9744,2.9769,2.9782,2.9814,2.9831,2.9856,2.9844,2.9808,2.9914,2.9861,2.9911,2.9911,2.9933,2.9931,3.0086,2.9949,2.9949,2.9949,2.9948,0,2.9643,2.97,2.9686,2.9724,2.9786,2.9769,2.983,2.9834,2.9847,2.9884,2.9856,2.9891,2.9874,2.9908,2.9899,2.9955,2.9964,2.9962,2.9958,2.9963,2.9962,2.9972,2.9964,2.9953,2.9952,2.9951,2.995,0,2.9765,2.9759,2.9823,2.9833,2.9837,2.9882,2.989,2.9924,2.9922,2.9968,2.9978,2.9974,3.0012,3.0003,3.0045,3.0038,3.0109,3.0098,3.0102,3.0099,3.0147,3.0142,3.0312,3.0332,3.0185,3.0186,3.0187,0,2.9843,2.9886,2.99,2.9923,2.9933,2.997,2.9991,2.9976,2.9999,3.0021,3.0052,3.0088,3.0114,3.0176,3.0176,3.0207,3.0195,3.0253,3.0199,3.0202,3.0192,3.0188,3.0191,3.0262,3.0264,3.0265,3.0267,0,2.9982,2.9976,3.0008,3.0038,3.0063,3.0087,3.0107,3.0127,3.0113,3.014,3.0177,3.0198,3.024,3.0274,3.0302,3.031,3.0285,3.0284,3.0296,3.03,3.0299,3.0297,3.0128,3.0279,3.0278,3.0277,3.0276,3.0276,3.0083,3.0118,3.0132,3.0168,3.0181,3.02,3.0232,3.0233,3.0265,3.0297,3.0286,3.0329,3.0344,3.0379,3.0389,3.0422,3.04,3.0419,3.0423,3.0427,3.0431,3.0296,3.0427,3.0427,3.0426,3.0426,3.0426,0,3.0217,3.0224,3.0257,3.0286,3.0313,3.0288,3.0309,3.0333,3.0371,3.0387,3.0414,3.0456,3.0489,3.0491,3.0521,3.0546,3.0536,3.0555,3.0551,3.0553,3.0451,3.0436,3.0563,3.0563,3.0563,3.0562,3.0562,3.0562,3.029,3.0346,3.0342,3.0405,3.0412,3.0453,3.0466,3.0483,3.0495,3.0544,3.0571,3.0572,3.0582,3.0613,3.0641,3.0641,3.0652,3.0674,3.067,3.0574,3.056,3.0547,3.0532,3.0678,3.0678,3.0768,3.0769,3.077]},{"header":{"parameterUnit":"m.s-1","parameterCategory":1,"la1":30.2991,"la2":30.254,"lo1":-89.0895,"lo2":-89.0444,"dy":0.0017,"dx":0.0017,"nx":28,"ny":28,"refTime":"2025-05-16T03:00:00:Z","depth":0,"parameterNumber":3,"parameterNumberName":"V-component_of_WINDS"},"data":[0,0,0,0,0,0,0,0,0,0,0,0,0,0,0,0,0,0,0,0,0,0,0,0,0,0,0,0,0,0,0,0,0,0,0,0,0,0,0,0,0,0,0,0,0,0,0,0,0,0,0,0,0,0,0,0,0,0,4.4199,4.4199,0,4.4211,4.4211,4.4211,4.4154,4.4153,4.4151,4.415,4.416,4.4161,4.4163,0,0,0,0,0,0,0,0,0,0,0,0,0,4.4125,4.4127,4.4199,4.4199,4.4199,4.4211,4.4211,4.4211,4.4155,4.4153,4.4151,4.4149,4.4159,4.4161,4.4163,0,0,0,0,0,0,0,0,0,0,0,0,0,4.4149,4.4127,4.4199,4.4172,4.417,4.4211,4.4211,4.4211,4.4155,4.4153,4.415,4.4148,4.4158,4.4161,4.4164,4.4229,0,0,4.4172,4.4173,0,0,0,0,0,0,0,0,4.4148,4.4152,4.4176,4.4174,4.4172,4.4179,4.4188,4.4217,4.4156,4.4161,4.415,4.4147,4.4168,4.417,4.4177,4.423,4.423,4.4172,4.4174,4.4175,4.4176,0,0,0,0,0,0,0,4.4146,4.4151,4.4203,4.4177,4.4174,4.4159,4.416,4.4194,4.4178,4.416,4.4156,4.4158,4.4166,4.4175,4.4177,4.423,4.4172,4.4174,4.4176,4.4177,4.4336,4.4339,0,0,0,0,0,0,4.4148,4.415,4.4203,4.4204,4.4154,4.4163,4.4163,4.4179,4.4177,4.4175,4.4161,4.4156,4.4171,4.4174,4.4177,4.4253,4.4175,4.4177,4.4179,4.4334,4.4337,4.434,0,0,0,0,0,0,4.4147,4.4153,4.4202,4.4176,4.4181,4.4166,4.4184,4.418,4.4189,4.4178,4.4174,4.4172,4.4169,4.4173,4.4217,4.4253,4.4179,4.4181,4.4331,4.4335,4.4338,4.4406,0,0,0,0,0,0,4.4145,4.4153,4.4179,4.4177,4.4182,4.4243,4.4187,4.4182,4.4194,4.4188,4.4188,4.4185,4.4168,4.4213,4.4219,4.4255,4.4183,4.4327,4.4332,4.4337,4.4401,4.4412,4.4422,0,0,0,0,0,4.4143,4.4197,4.418,4.4187,4.4214,4.4245,4.4248,4.4228,4.4197,4.4222,4.4215,4.4185,4.4248,4.4218,4.4225,4.4262,4.4325,4.4331,4.4337,4.4396,4.441,4.4421,0,0,0,0,0,0,4.4203,4.4196,4.4178,4.4233,4.424,4.4235,4.4266,4.4243,4.4258,4.4252,4.4225,4.4225,4.4273,4.4271,4.4238,4.4324,4.4281,4.4288,4.4324,4.4337,4.4347,4.4346,4.4185,0,0,0,0,0,4.4223,4.4249,4.4242,4.4292,4.4296,4.4281,4.4293,4.4277,4.4283,4.4285,4.4281,4.4287,4.4308,4.4322,4.4341,4.44,4.4399,4.4429,4.4439,4.4448,4.4455,4.4485,4.4498,4.4359,4.4359,4.4359,0,0,4.4264,4.4264,4.4282,4.4304,4.4307,4.4334,4.4284,4.4315,4.4334,4.429,4.433,4.4328,4.4332,4.4384,4.4406,4.4384,4.4493,4.4456,4.4463,4.4464,4.4493,4.4506,4.4518,4.4363,4.4362,4.4362,0,0,4.4353,4.4356,4.4397,4.4402,4.4408,4.4397,4.4407,4.4406,4.4403,4.4443,4.441,4.4433,4.447,4.4474,4.4482,4.4572,4.4546,4.4579,4.4633,4.4664,4.4675,4.4684,4.4716,4.4728,4.4586,4.4586,4.4586,0,4.4403,4.4443,4.4421,4.4454,4.4465,4.4426,4.4468,4.4473,4.4484,4.4492,4.4467,4.4512,4.4513,4.4565,4.4587,4.4594,4.4604,4.4579,4.4675,4.4684,4.4693,4.4723,4.4735,4.459,4.4589,4.4589,4.4589,0,4.4504,4.4533,4.4565,4.4578,4.4592,4.4629,4.4612,4.4629,4.4611,4.4603,4.4644,4.4644,4.4661,4.4673,4.4656,4.4722,4.4708,4.468,4.4635,4.4711,4.4738,4.4749,4.4596,4.4594,4.4593,4.4592,0,0,4.4631,4.4631,4.4644,4.4649,4.4653,4.4674,4.4709,4.4727,4.4741,4.475,4.4779,4.4811,4.4784,4.4793,4.4776,4.4802,4.4873,4.477,4.477,4.4789,4.4946,4.4967,4.498,4.4856,4.4858,4.486,4.4945,0,4.4717,4.4778,4.4759,4.482,4.4845,4.4809,4.484,4.4845,4.4838,4.4858,4.4851,4.4874,4.4838,4.4842,4.4867,4.486,4.4904,4.4853,4.4881,4.4882,4.4881,4.4995,4.5017,4.5098,4.4956,4.4958,4.4959,0,4.4826,4.4841,4.4904,4.4903,4.4913,4.4941,4.4956,4.4976,4.4981,4.4974,4.4983,4.4961,4.4994,4.495,4.4996,4.4961,4.4972,4.497,4.4972,4.4974,4.4925,4.4999,4.5123,4.5135,4.4976,4.4974,4.4973,0,4.4912,4.4947,4.4989,4.4995,4.4995,4.5015,4.5016,4.5019,4.5031,4.5043,4.505,4.5067,4.5075,4.5088,4.507,4.504,4.5118,4.5073,4.5113,4.5113,4.513,4.5129,4.5257,4.5138,4.5138,4.5138,4.5138,0,4.501,4.505,4.5027,4.5053,4.5097,4.5075,4.5118,4.5115,4.5118,4.5142,4.5111,4.5135,4.511,4.5131,4.5117,4.5156,4.5161,4.5155,4.5151,4.5158,4.5159,4.5164,4.5157,4.5141,4.514,4.514,4.5139,0,4.5112,4.5099,4.5143,4.5139,4.514,4.5172,4.5169,4.5192,4.5183,4.5214,4.522,4.5206,4.5229,4.5213,4.5236,4.5226,4.5278,4.5266,4.5276,4.5273,4.5313,4.531,4.5449,4.5466,4.5337,4.5338,4.5339,0,4.5175,4.5206,4.5206,4.522,4.5223,4.5247,4.5259,4.5238,4.5251,4.5259,4.5282,4.5302,4.5317,4.5355,4.5346,4.5364,4.5351,4.5399,4.5354,4.5359,4.5351,4.535,4.5352,4.5408,4.541,4.5411,4.5412,0,4.5289,4.5281,4.53,4.5316,4.5332,4.5344,4.5353,4.5366,4.5345,4.5362,4.5385,4.5397,4.542,4.544,4.5454,4.5454,4.543,4.5426,4.5436,4.5443,4.5448,4.5445,4.5301,4.5423,4.5422,4.5421,4.542,4.542,4.5373,4.5398,4.5402,4.5424,4.5429,4.5438,4.546,4.5454,4.5474,4.5491,4.5477,4.5505,4.5509,4.5525,4.5528,4.5549,4.5529,4.5544,4.5547,4.5551,4.5557,4.5445,4.5551,4.5551,4.5551,4.555,4.555,0,4.5484,4.5485,4.5506,4.552,4.5537,4.5513,4.5522,4.5538,4.5563,4.5568,4.5584,4.5611,4.563,4.5623,4.5641,4.5659,4.5648,4.5664,4.5662,4.5662,4.5574,4.5563,4.5672,4.5672,4.5672,4.5672,4.5672,4.5672,4.5544,4.5585,4.5577,4.562,4.562,4.5647,4.5654,4.5663,4.5667,4.5698,4.5715,4.571,4.5711,4.5728,4.5745,4.5742,4.575,4.577,4.5763,4.5681,4.5668,4.5657,4.5647,4.5772,4.5772,4.585,4.585,4.5851]}]]